[[{"header":{"parameterUnit":"m.s-1","parameterCategory":1,"la1":30.2991,"la2":30.254,"lo1":-89.0895,"lo2":-89.0444,"dy":0.0017,"dx":0.0017,"nx":28,"ny":28,"refTime":"2025-03-15T03:00:00:Z","depth":0,"parameterNumber":2,"parameterNumberName":"U-component_of_WINDS"},"data":[0,0,0,0,0,0,0,0,0,0,0,0,0,0,0,0,0,0,0,0,0,0,0,0,0,0,0,0,0,0,0,0,0,0,0,0,0,0,0,0,0,0,0,0,0,0,0,0,0,0,0,0,0,0,0,0,0,0,-4.701,-4.7011,0,-4.7071,-4.7072,-4.7072,-4.7061,-4.706,-4.7059,-4.7057,-4.7117,-4.712,-4.7122,0,0,0,0,0,0,0,0,0,0,0,0,0,-4.6882,-4.6885,-4.701,-4.7011,-4.7011,-4.7071,-4.7072,-4.7073,-4.7061,-4.706,-4.7058,-4.7057,-4.7116,-4.7119,-4.7122,0,0,0,0,0,0,0,0,0,0,0,0,0,-4.694,-4.6886,-4.701,-4.7013,-4.7014,-4.7071,-4.7072,-4.7073,-4.7061,-4.706,-4.7058,-4.7056,-4.7115,-4.7119,-4.7123,-4.718,0,0,-4.7135,-4.7137,0,0,0,0,0,0,0,0,-4.6937,-4.6945,-4.7012,-4.7013,-4.7014,-4.7057,-4.7049,-4.7108,-4.7062,-4.7043,-4.7057,-4.7056,-4.7098,-4.7103,-4.7118,-4.7182,-4.7185,-4.7135,-4.7138,-4.7139,-4.714,0,0,0,0,0,0,0,-4.6933,-4.6942,-4.7034,-4.7013,-4.7014,-4.7011,-4.7017,-4.706,-4.7079,-4.7045,-4.7044,-4.7051,-4.7098,-4.7115,-4.712,-4.7186,-4.7135,-4.7139,-4.7141,-4.7142,-4.7301,-4.7302,0,0,0,0,0,0,-4.6928,-4.6939,-4.7032,-4.7036,-4.6971,-4.7015,-4.7022,-4.7044,-4.7078,-4.7082,-4.7053,-4.7051,-4.7109,-4.7115,-4.7122,-4.719,-4.7139,-4.7143,-4.7145,-4.7299,-4.7301,-4.7303,0,0,0,0,0,0,-4.6925,-4.6936,-4.703,-4.6987,-4.6999,-4.7019,-4.7044,-4.7047,-4.7063,-4.7085,-4.7088,-4.7066,-4.7108,-4.7116,-4.7166,-4.7192,-4.7145,-4.7148,-4.7297,-4.7299,-4.7302,-4.7327,0,0,0,0,0,0,-4.6922,-4.6935,-4.6957,-4.6988,-4.7001,-4.7073,-4.7046,-4.7049,-4.707,-4.7068,-4.7098,-4.7101,-4.7107,-4.716,-4.717,-4.7196,-4.7151,-4.7294,-4.7298,-4.7301,-4.7324,-4.733,-4.7336,0,0,0,0,0,-4.6917,-4.6961,-4.6958,-4.697,-4.7029,-4.7074,-4.7082,-4.7089,-4.7072,-4.7094,-4.7108,-4.71,-4.7188,-4.7165,-4.7176,-4.7204,-4.7293,-4.7297,-4.7301,-4.7321,-4.7329,-4.7336,0,0,0,0,0,0,-4.6931,-4.6965,-4.6962,-4.7018,-4.7044,-4.7072,-4.71,-4.7097,-4.7127,-4.7123,-4.713,-4.7137,-4.7187,-4.7201,-4.7175,-4.7262,-4.7238,-4.7245,-4.725,-4.7258,-4.7263,-4.7258,-4.7154,0,0,0,0,0,-4.6941,-4.6976,-4.7004,-4.705,-4.7063,-4.708,-4.71,-4.7103,-4.7129,-4.714,-4.7158,-4.7183,-4.7217,-4.7238,-4.727,-4.7327,-4.7333,-4.7352,-4.7358,-4.7363,-4.7368,-4.7399,-4.7407,-4.7317,-4.7317,-4.7317,0,0,-4.6961,-4.6984,-4.7005,-4.7053,-4.7073,-4.7109,-4.7088,-4.7126,-4.7152,-4.7145,-4.7193,-4.7208,-4.7237,-4.729,-4.7315,-4.7303,-4.7395,-4.7369,-4.7372,-4.7374,-4.7404,-4.7413,-4.742,-4.732,-4.7319,-4.7319,0,0,-4.7015,-4.7037,-4.7078,-4.7099,-4.7131,-4.7142,-4.7152,-4.7182,-4.7192,-4.7241,-4.7236,-4.7268,-4.7325,-4.7346,-4.7364,-4.743,-4.7423,-4.7441,-4.747,-4.7501,-4.7508,-4.7514,-4.7536,-4.7544,-4.7446,-4.7446,-4.7446,0,-4.7036,-4.7089,-4.7099,-4.7138,-4.7159,-4.7156,-4.7197,-4.7218,-4.7258,-4.7272,-4.726,-4.7333,-4.7353,-4.7411,-4.7427,-4.7443,-4.7454,-4.7435,-4.7506,-4.7513,-4.7519,-4.754,-4.7548,-4.7448,-4.7447,-4.7447,-4.7447,0,-4.7112,-4.715,-4.7179,-4.7219,-4.7244,-4.7284,-4.7299,-4.7323,-4.7326,-4.7338,-4.7388,-4.7412,-4.7449,-4.7464,-4.7466,-4.7523,-4.7515,-4.7505,-4.7481,-4.7529,-4.7549,-4.7557,-4.745,-4.7449,-4.7449,-4.7448,0,0,-4.7173,-4.7221,-4.7231,-4.725,-4.7286,-4.7315,-4.7355,-4.7393,-4.7413,-4.7442,-4.7475,-4.7526,-4.7517,-4.7538,-4.7543,-4.757,-4.7619,-4.7556,-4.7557,-4.7565,-4.7683,-4.7689,-4.7698,-4.7617,-4.7619,-4.762,-4.768,0,-4.7229,-4.7301,-4.7312,-4.7374,-4.7409,-4.7409,-4.7444,-4.747,-4.7484,-4.7515,-4.7531,-4.7566,-4.7552,-4.7565,-4.7592,-4.7608,-4.7643,-4.7604,-4.7647,-4.7648,-4.7636,-4.7709,-4.7715,-4.777,-4.7688,-4.769,-4.7691,0,-4.7303,-4.7336,-4.7402,-4.7435,-4.745,-4.7481,-4.7517,-4.7548,-4.7578,-4.7586,-4.7611,-4.7613,-4.7655,-4.7632,-4.769,-4.7663,-4.7682,-4.7693,-4.7695,-4.7697,-4.767,-4.771,-4.7788,-4.7796,-4.7703,-4.7702,-4.7701,0,-4.7339,-4.74,-4.7447,-4.7463,-4.7503,-4.7525,-4.7543,-4.7572,-4.7594,-4.7626,-4.764,-4.7677,-4.7696,-4.7724,-4.7736,-4.7718,-4.7793,-4.7771,-4.7799,-4.7799,-4.7812,-4.7811,-4.7892,-4.7829,-4.7829,-4.7829,-4.7828,0,-4.7399,-4.7439,-4.7464,-4.7493,-4.7538,-4.7551,-4.7596,-4.7613,-4.7639,-4.7671,-4.7674,-4.7704,-4.7719,-4.7752,-4.7762,-4.7808,-4.7817,-4.7824,-4.7826,-4.7822,-4.7821,-4.7832,-4.7828,-4.7831,-4.783,-4.783,-4.7829,0,-4.7445,-4.7463,-4.7515,-4.755,-4.756,-4.7591,-4.7621,-4.7649,-4.7664,-4.7705,-4.7715,-4.7739,-4.7777,-4.7793,-4.784,-4.7847,-4.7899,-4.7899,-4.7889,-4.7889,-4.7916,-4.7913,-4.8005,-4.8017,-4.7949,-4.7949,-4.795,0,-4.748,-4.7512,-4.755,-4.7573,-4.7591,-4.7627,-4.7651,-4.7666,-4.769,-4.7728,-4.7751,-4.7791,-4.7822,-4.7884,-4.7905,-4.7941,-4.7941,-4.7971,-4.7946,-4.7942,-4.7939,-4.7936,-4.7939,-4.7974,-4.7975,-4.7976,-4.7976,0,-4.7541,-4.7549,-4.7583,-4.7621,-4.7649,-4.7679,-4.7709,-4.7727,-4.7747,-4.7774,-4.7814,-4.7839,-4.7888,-4.7927,-4.7965,-4.7983,-4.7983,-4.7985,-4.7993,-4.7988,-4.798,-4.7983,-4.7899,-4.7981,-4.7981,-4.798,-4.798,-4.798,-4.7582,-4.7609,-4.7641,-4.7679,-4.7704,-4.7732,-4.776,-4.778,-4.7814,-4.7855,-4.7863,-4.7906,-4.7937,-4.7988,-4.8008,-4.8042,-4.8034,-4.8046,-4.8049,-4.8051,-4.8052,-4.7977,-4.8049,-4.8049,-4.8049,-4.8049,-4.8049,0,-4.7641,-4.7662,-4.7697,-4.7739,-4.7769,-4.7769,-4.7802,-4.7827,-4.7865,-4.7895,-4.7927,-4.7973,-4.8011,-4.8037,-4.8075,-4.8097,-4.8098,-4.8107,-4.8104,-4.8108,-4.8058,-4.8046,-4.8105,-4.8105,-4.8105,-4.8105,-4.8105,-4.8105,-4.7675,-4.7722,-4.7734,-4.7794,-4.7815,-4.7857,-4.7876,-4.7902,-4.7926,-4.7978,-4.801,-4.8027,-4.8055,-4.8096,-4.8131,-4.8138,-4.8151,-4.816,-4.8165,-4.8117,-4.8111,-4.8105,-4.8094,-4.8163,-4.8163,-4.8212,-4.8213,-4.8213]},{"header":{"parameterUnit":"m.s-1","parameterCategory":1,"la1":30.2991,"la2":30.254,"lo1":-89.0895,"lo2":-89.0444,"dy":0.0017,"dx":0.0017,"nx":28,"ny":28,"refTime":"2025-03-15T03:00:00:Z","depth":0,"parameterNumber":3,"parameterNumberName":"V-component_of_WINDS"},"data":[0,0,0,0,0,0,0,0,0,0,0,0,0,0,0,0,0,0,0,0,0,0,0,0,0,0,0,0,0,0,0,0,0,0,0,0,0,0,0,0,0,0,0,0,0,0,0,0,0,0,0,0,0,0,0,0,0,0,4.2254,4.2254,0,4.2293,4.2293,4.2293,4.2299,4.2299,4.2299,4.2298,4.2335,4.2337,4.2338,0,0,0,0,0,0,0,0,0,0,0,0,0,4.2186,4.2187,4.2254,4.2254,4.2255,4.2293,4.2293,4.2294,4.2299,4.2299,4.2299,4.2298,4.2335,4.2336,4.2338,0,0,0,0,0,0,0,0,0,0,0,0,0,4.2219,4.2187,4.2254,4.2262,4.2264,4.2292,4.2293,4.2294,4.2299,4.2299,4.2298,4.2298,4.2334,4.2336,4.2338,4.236,0,0,4.2344,4.2345,0,0,0,0,0,0,0,0,4.2217,4.2221,4.2261,4.2262,4.2263,4.2291,4.2283,4.2316,4.23,4.2286,4.2298,4.2298,4.2321,4.2324,4.2332,4.2362,4.2364,4.2344,4.2345,4.2346,4.2347,0,0,0,0,0,0,0,4.2215,4.222,4.2269,4.2261,4.2263,4.2265,4.2269,4.2289,4.2305,4.2287,4.2287,4.2292,4.2321,4.233,4.2333,4.2364,4.2344,4.2346,4.2347,4.2348,4.2419,4.2419,0,0,0,0,0,0,4.2211,4.2218,4.2268,4.227,4.2239,4.2266,4.2271,4.2282,4.2305,4.2308,4.2292,4.2292,4.2327,4.2331,4.2334,4.2365,4.2346,4.2348,4.2349,4.2418,4.2419,4.242,0,0,0,0,0,0,4.221,4.2215,4.2266,4.2244,4.2251,4.2268,4.2281,4.2283,4.2292,4.231,4.2312,4.2298,4.2327,4.2331,4.2355,4.2366,4.2349,4.2351,4.2417,4.2418,4.2419,4.2424,0,0,0,0,0,0,4.2208,4.2215,4.2223,4.2245,4.2252,4.2286,4.2281,4.2284,4.2296,4.2296,4.2316,4.2319,4.2327,4.2352,4.2357,4.2368,4.2352,4.2416,4.2418,4.2419,4.2423,4.2425,4.2427,0,0,0,0,0,4.2205,4.2221,4.2223,4.2229,4.2263,4.2287,4.2291,4.2301,4.2297,4.2306,4.2317,4.2318,4.2364,4.2354,4.236,4.2372,4.2416,4.2417,4.2419,4.2422,4.2424,4.2427,0,0,0,0,0,0,4.2199,4.2224,4.2227,4.225,4.2267,4.2288,4.2299,4.2303,4.232,4.2319,4.2329,4.2334,4.2358,4.2367,4.2356,4.2397,4.2389,4.2392,4.239,4.2392,4.2394,4.2392,4.2354,0,0,0,0,0,4.22,4.2218,4.2239,4.2258,4.2266,4.2281,4.2292,4.2299,4.2315,4.2322,4.2335,4.2351,4.237,4.2381,4.2399,4.2424,4.243,4.2435,4.2437,4.2439,4.2441,4.2459,4.2462,4.2425,4.2425,4.2425,0,0,4.2203,4.2219,4.2229,4.2257,4.2271,4.229,4.2287,4.2306,4.232,4.2325,4.2349,4.2359,4.2378,4.2404,4.2415,4.2412,4.2453,4.2441,4.2442,4.2444,4.2461,4.2464,4.2467,4.2426,4.2426,4.2426,0,0,4.2218,4.2232,4.2251,4.2265,4.2286,4.2297,4.2302,4.2323,4.2331,4.2356,4.2361,4.2378,4.2408,4.2423,4.2434,4.2459,4.2462,4.2465,4.2475,4.2492,4.2495,4.2498,4.2509,4.2513,4.2467,4.2467,4.2467,0,4.2219,4.2248,4.2259,4.228,4.2293,4.23,4.232,4.2333,4.2359,4.2368,4.2364,4.2406,4.2418,4.2449,4.2456,4.2464,4.2471,4.2462,4.2494,4.2496,4.2499,4.251,4.2514,4.2467,4.2467,4.2467,4.2467,0,4.2249,4.2269,4.2282,4.2309,4.2323,4.2343,4.2359,4.2372,4.2378,4.239,4.2417,4.2433,4.2456,4.2463,4.2468,4.2496,4.2493,4.2491,4.2485,4.2503,4.2514,4.2518,4.2468,4.2468,4.2468,4.2468,0,0,4.2258,4.2295,4.23,4.2314,4.234,4.2356,4.2377,4.2401,4.2414,4.2432,4.2451,4.2479,4.2479,4.2492,4.2499,4.2513,4.2536,4.251,4.2511,4.2516,4.2571,4.2573,4.2578,4.2538,4.2539,4.2539,4.257,0,4.2278,4.2318,4.2331,4.2363,4.2384,4.2393,4.2412,4.2431,4.2443,4.2462,4.2475,4.2496,4.2493,4.2501,4.2516,4.253,4.2548,4.2528,4.2557,4.2558,4.2553,4.2583,4.2584,4.2612,4.2574,4.2575,4.2575,0,4.2305,4.2327,4.2363,4.239,4.2399,4.2416,4.2442,4.246,4.2482,4.249,4.2507,4.2513,4.2538,4.253,4.2564,4.2551,4.2564,4.2573,4.2574,4.2578,4.2568,4.2589,4.2621,4.2626,4.2581,4.2581,4.258,0,4.2312,4.235,4.2377,4.2388,4.242,4.2433,4.2446,4.2468,4.2483,4.2505,4.2516,4.2539,4.2552,4.2571,4.2585,4.2577,4.2619,4.2611,4.2628,4.2628,4.2636,4.2636,4.2673,4.2642,4.2642,4.2642,4.2642,0,4.2333,4.2355,4.2381,4.2398,4.2424,4.2439,4.2464,4.2479,4.2499,4.2519,4.2528,4.2547,4.2564,4.2585,4.2596,4.2625,4.263,4.2638,4.2641,4.2638,4.2637,4.2647,4.2646,4.2643,4.2643,4.2643,4.2643,0,4.2344,4.2362,4.2393,4.2422,4.243,4.2448,4.2473,4.2491,4.2505,4.2531,4.2538,4.256,4.2586,4.2602,4.2634,4.2642,4.2674,4.2675,4.2667,4.2669,4.2685,4.2684,4.2731,4.2739,4.2701,4.2702,4.2702,0,4.2356,4.2374,4.2406,4.2422,4.2437,4.246,4.2477,4.2494,4.2511,4.254,4.2555,4.2582,4.2605,4.2647,4.2666,4.2691,4.2694,4.2709,4.2698,4.2696,4.2697,4.2697,4.27,4.2711,4.2711,4.2711,4.2712,0,4.2377,4.2387,4.241,4.2439,4.2459,4.2482,4.2504,4.2516,4.2537,4.2556,4.2585,4.2603,4.2638,4.2666,4.2695,4.2709,4.2715,4.2715,4.2721,4.2718,4.2714,4.2719,4.2674,4.2714,4.2714,4.2713,4.2713,4.2713,4.239,4.2408,4.2435,4.2463,4.2482,4.2504,4.2524,4.2542,4.2566,4.2598,4.2606,4.2637,4.2662,4.2701,4.2717,4.2741,4.2739,4.2746,4.2748,4.275,4.2752,4.271,4.2746,4.2746,4.2746,4.2746,4.2746,0,4.2413,4.2432,4.2458,4.2491,4.2514,4.2519,4.2546,4.2564,4.2591,4.2615,4.2639,4.2674,4.2702,4.2724,4.2754,4.2769,4.2773,4.2777,4.2776,4.278,4.2751,4.2745,4.2773,4.2773,4.2773,4.2773,4.2773,4.2773,4.2428,4.246,4.2473,4.2516,4.2534,4.2566,4.2581,4.2602,4.2622,4.2661,4.2686,4.2701,4.2725,4.2757,4.2784,4.279,4.2801,4.2805,4.2811,4.2784,4.2781,4.2779,4.2773,4.2807,4.2807,4.2838,4.2839,4.2839]}]]